This is the latest recevied weather packets stored in our database for station/object XW7RMR. If no packets are shown the sender has not sent any weather packets the latest 10 day(s).
| Time | Temp. | Humidity | Pressure | Rain* | Wind** | Luminosity | Snow |
|---|---|---|---|---|---|---|---|
| 1777080024 | 18.89° C | 33% | 1012.2 hPa | 0 mm | - | 175 W/m² | - |
| 1777079723 | 18.89° C | 31% | 1012.3 hPa | 0 mm | - | 189 W/m² | - |
| 1777079419 | 18.89° C | 32% | 1012.2 hPa | 0 mm | - | 202 W/m² | - |
| 1777079115 | 18.89° C | 32% | 1012.5 hPa | 0 mm | - | 216 W/m² | - |
| 1777078811 | 18.89° C | 32% | 1012.3 hPa | 0 mm | - | 232 W/m² | - |
| 1777078508 | 18.89° C | 31% | 1012.2 hPa | 0 mm | - | 247 W/m² | - |
| 1777078203 | 18.89° C | 28% | 1012.3 hPa | 0 mm | - | 264 W/m² | - |
| 1777077898 | 18.89° C | 29% | 1012.3 hPa | 0 mm | - | 277 W/m² | - |
| 1777077595 | 19.44° C | 29% | 1012.3 hPa | 0 mm | - | 292 W/m² | - |
| 1777077291 | 19.44° C | 30% | 1012.3 hPa | 0 mm | - | 304 W/m² | - |
| 1777076989 | 18.89° C | 30% | 1012.3 hPa | 0 mm | - | 321 W/m² | - |
| 1777076686 | 19.44° C | 29% | 1012.6 hPa | 0 mm | - | 338 W/m² | - |
| 1777076382 | 19.44° C | 29% | 1012.5 hPa | 0 mm | - | 356 W/m² | - |
| 1777076077 | 18.89° C | 28% | 1012.5 hPa | 0 mm | - | 373 W/m² | - |
| 1777075773 | 19.44° C | 29% | 1012.5 hPa | 0 mm | - | 390 W/m² | - |
| 1777075469 | 18.89° C | 28% | 1012.5 hPa | 0 mm | - | 408 W/m² | - |
| 1777075165 | 19.44° C | 28% | 1012.7 hPa | 0 mm | - | 422 W/m² | - |
| 1777074862 | 19.44° C | 27% | 1013 hPa | 0 mm | - | 436 W/m² | - |
| 1777074562 | 19.44° C | 28% | 1012.8 hPa | 0 mm | - | 452 W/m² | - |
| 1777074258 | 19.44° C | 28% | 1013 hPa | 0 mm | - | 467 W/m² | - |
| 1777073955 | 19.44° C | 28% | 1013.2 hPa | 0 mm | - | 483 W/m² | - |
| 1777073650 | 19.44° C | 28% | 1012.8 hPa | 0 mm | - | 499 W/m² | - |
| 1777073345 | 20° C | 28% | 1012.9 hPa | 0 mm | - | 508 W/m² | - |
| 1777073041 | 19.44° C | 28% | 1013 hPa | 0 mm | - | 524 W/m² | - |
| 1777072738 | 19.44° C | 28% | 1013.1 hPa | 0 mm | - | 537 W/m² | - |
* Rain latest hour (hover to see other rain measurements)
** Current wind speed in m/s (hover to see current wind gust speed)